Location: Unspecified
(49.2170°N, 0.0000°E)
Time: 05:19:50
(UTC+00:00)

Vanguard 3 - Pass Details

Date: 03 July 2019
Orbit: 507 x 3264 km, 33.4° (Epoch: 22 July)

Event Time Altitude Azimuth Distance (km) Brightness Sun altitude
Rises 09:16:19 0° 244° (WSW) 7,228 11.7 48.0°
Reaches altitude 10° 09:21:42 10° 238° (WSW) 6,141 11.5 48.8°
Maximum altitude 09:38:25 42° 178° (S) 3,400 11.2 51.2°
Drops below altitude 10° 09:49:55 10° 113° (ESE) 4,291 11.7 52.8°
Sets 09:52:56 0° 106° (ESE) 4,952 11.7 53.2°
